カタログに戻る

HEBI-5

運用中科学SSO
NORAD 61871·PAYLOAD·🇨🇳 China
この衛星名は、まだ公式ソースで確認されていません。

打ち上げ Nov 9, 2024 から Jiuquan Satellite Launch Center

Loading…

次のパス (今後24時間)

TLE

最新Source: Space-Track

元期: Sep 14, 2026, 14:57 UTC

1 61871U 24203C   26257.62347032  .00007866  00000-0  30565-3 0  9992
2 61871  97.4152 326.1850 0011716  37.2558 322.9491 15.26270232102502

AllMySatでHEBI-5をリアルタイム追跡

Download on the App Store